sat.trackr.live / text

‹ back to catalog

STARLINK-4595

NORAD 53627 · 2022-104AR

PAYLOAD ACTIVE UNKNOWN

§ Identity

Operator
Country
US
Launch date
2022-08-28
Launch site
AFETR
Launch vehicle
Mass (kg)
RCS (m²)

Purposes: comms

External: N2YO · Heavens-Above · Gunter

§ Orbital elements

Epoch: 2026-09-20T14:26:26.594016Z

Period
93.85 min
Inclination
53.1614°
Eccentricity
0.0001079
Mean motion
15.34388985 rev/d
Perigee alt
462.0 km
Apogee alt
463.5 km
Semi-major
6,840.9 km
B*
8.6173e-6
RAAN
66.9916°
Arg perigee
74.0334°
Mean anomaly
286.0788°
Rev number
22,534

§ Raw data

STARLINK-45951 53627U 22104AR  26263.60169669 -.00000085  00000+0  86173-5 0  99972 53627  53.1614  66.9916 0001079  74.0334 286.0788 15.34388985225349

JSON: /api/v1/satellites/53627 · /tle

For live sub-satellite position, see the globe view (requires WebGL).

§ Visibility from observer

Set your observer location to see the next 7 days of passes ≥ 10°. The values pass through the URL so the page stays shareable.

No JS? Fill the form by hand. The geolocation button needs JavaScript.